SCP
-0 0 -0 -0 0 0 0 0 -0 -0 -0 -0 -0 -0 -0 -0 -0 -0 -0 -0 -0 -0 -0 -0 -0 0 0 0 0 0 0 0 0 0 -0 -0 0 0 0 0 0 0 0
-0 -0 -0 -0 -0 0 0 0 0 0 -0 -0 -0 -0 -0 -0 -0 -0 -0 -0 -0 -0 0 0 0 0 0 0 0 -0 -0 -0 -0 -0 -0 -0 0 -0 0 0 -0 0 0
-0 -0 -0 -0 -0 -0 0 0 0 0 0 0 0 0 -0 0 0 0 0 0 0 0 0 0 0 0 0 0 -0 -0 -0 -0 -0 -0 -0 -0 -0 -0 -0 -0 0 -0 -0
-0 -0 -0 -0 -0 -0 -0 -0 0 0 0 0 0 0 0 0 0 0 0 0 0 0 0 0 0 0 0 0 -0 -0 -0 -0 -0 -0 -0 -0 -0 -0 -0 -0 -0 -0 -0
-0 -0 -0 -0 -0 -0 -0 -0 0 0 0 0 0 0 0 0 0 0 0 0 0 0 0 0 0 0 0 0 -0 -0 -0 -0 -0 -0 -0 -0 -0 -0 -0 -0 -0 -0 -0
0 -0 -0 -0 -0 -0 -0 0 0 0 0 0 -0 0 0 0 0 0 0 0 0 0 0 0 0 0 0 0 -0 -0 -0 -0 -0 -0 -0 -0 -0 -0 -0 -0 -0 -0 -0
0 0 -0 0 -0 0 0 0 0 0 0 0 0 0 0 0 0 0 0 0 0 0 0 0 0 0 0 -0 -0 -0 -0 -0 -0 -0 -0 -0 -0 -0 -0 0 0 0 0
0 0 0 -0 -0 -0 -0 0 0 0 0 0 0 0 0 0 0 0 0 0 0 0 0 0 -0 -0 0 0 0 0 0 -0 -0 -0 -0 -0 0 -0 -0 0 0 0 0
-0 0 0 -0 -0 -0 -0 -0 -0 -0 0 0 0 0 0 0 0 0 0 0 0 0 0 0 0 0 0 0 0 0 0 0 0 0 0 0 0 -0 -0 0 0 0 0
0 0 -0 -0 0 0 0 0 0 0 0 0 0 0 0 0 0 0 0 0 0 0 0 0 0 0 0 0 0 0 0 0 0 0 0 0 0 0 0 0 0 0 0
0 0 0 0 0 0 0 0 0 0 0 0 0 0 0 0 0 0 0 0 0 0 0 -0 0 0 0 0 0 0 0 0 0 0 0 0 0 0 0 0 0 0 0
0 0 0 0 0 0 0 0 0 0 0 0 0 0 0 0 0 0 0 0 0 0 0 0 0 0 0 0 0 0 0 0 0 0 0 0 0 0 0 0 0 0 1
0 0 0 0 0 0 0 0 0 0 0 0 0 0 1 1 1 1 1 0 0 0 0 1 1 1 1 1 0 0 0 0 0 0 0 0 0 0 0 0 0 0 0
-0 -0 -0 -0 0 -0 -0 0 0 0 0 0 0 1 1 1 1 0 0 0 0 0 0 1 1 1 1 1 0 0 0 0 0 0 0 0 0 0 0 0 0 0 0
-0 -0 -0 -0 -0 -0 -0 -0 -0 -0 0 0 0 0 0 0 0 0 0 0 0 0 0 0 1 1 1 1 0 0 0 0 0 0 0 0 0 0 0 0 0 0 0
-0 -0 -0 -0 0 0 0 0 0 0 0 0 0 0 0 0 0 0 0 0 0 0 0 0 0 0 0 0 0 0 0 0 0 0 0 0 0 0 0 0 0 0 0
-0 -0 0 0 0 0 0 0 -0 0 0 0 0 0 0 0 0 0 0 0 0 0 0 0 0 0 0 0 0 0 0 0 0 0 0 0 0 0 1 1 0 1 1
0 -0 0 0 -0 -0 0 0 0 0 0 0 0 0 0 0 0 0 0 0 0 0 0 0 0 0 0 0 0 0 0 0 0 0 1 1 1 1 1 3 2 2 2
0 -0 -0 0 0 0 -0 0 0 0 0 0 0 0 0 0 0 0 0 0 0 0 0 0 0 0 0 0 0 0 0 0 0 1 1 1 2 2 2 1 2 3 3
-0 -0 0 0 0 0 0 0 0 0 0 0 0 0 0 0 0 0 0 0 0 0 0 0 0 0 0 0 0 0 0 0 1 1 1 1 1 2 2 2 2 2 2
-0 0 0 0 0 0 0 0 0 0 0 0 0 0 0 0 0 0 0 0 0 0 0 0 0 0 0 0 0 0 0 0 0 2 2 1 1 1 2 2 2 2 2
0 0 0 0 1 0 0 0 0 0 0 0 0 0 0 0 0 0 0 0 0 0 0 0 0 0 0 0 0 0 0 0 0 1 1 1 1 1 1 1 1 2 2
0 0 1 1 1 0 0 0 0 0 0 0 0 0 0 0 0 0 0 0 1 0 0 0 0 0 0 0 0 0 0 0 1 0 1 1 1 1 0 1 1 1 1
0 0 0 0 0 0 0 0 0 0 0 0 0 0 0 0 0 0 0 0 0 1 1 0 0 0 0 0 0 0 0 0 0 1 0 1 1 1 0 0 1 1 1
0 0 0 0 0 0 0 0 0 0 0 0 0 0 0 0 0 0 0 0 0 0 0 1 1 1 0 0 0 0 0 0 0 0 0 1 0 0 0 0 0 1 1
0 0 0 0 0 0 0 0 0 0 0 0 0 0 0 0 0 0 0 0 0 0 0 1 1 0 0 0 0 0 0 0 0 0 0 0 0 0 0 0 0 1 0
Wind_Speed_500mb
18 21 21 22 24 26 24 22 21 23 23 23 24 23 22 21 21 21 22 23 23 25 27 28 29 29 28 30 33 34 36 36 37 37 37 37 37 36 35 34 35 34 34
22 24 24 22 21 21 22 20 18 19 19 19 18 18 19 18 17 18 18 18 18 18 19 20 21 21 20 19 20 21 23 27 28 29 30 30 30 31 32 31 31 27 31
18 20 24 23 21 20 19 18 15 14 14 15 15 14 13 13 13 14 14 13 12 12 12 13 13 12 11 11 13 14 16 18 17 20 21 22 21 22 23 25 27 28 29
12 15 20 23 22 19 19 19 17 15 13 12 11 10 9 8 8 8 8 8 7 6 6 6 6 5 5 5 4 4 3 4 6 8 9 10 10 13 15 17 20 21 22
12 12 17 22 21 19 18 17 15 13 11 8 6 4 2 1 2 2 3 3 3 2 3 2 3 3 2 2 3 4 5 6 6 4 3 3 3 3 6 9 11 14 15
13 14 14 18 20 17 14 12 10 8 6 5 4 3 5 7 7 7 6 6 6 6 5 7 8 8 9 10 10 11 11 11 12 13 8 7 8 10 6 4 2 3 7
10 14 17 18 17 14 11 9 7 5 5 6 8 9 9 11 12 11 10 10 11 11 9 9 10 10 10 11 13 14 14 14 13 15 15 14 14 14 14 12 8 4 3
13 12 14 11 10 12 12 12 13 12 12 13 11 11 12 13 14 13 14 14 15 14 11 12 11 12 13 13 13 15 18 17 14 14 15 16 20 21 20 21 15 12 11
17 16 11 11 8 7 5 8 14 14 14 15 18 20 19 19 19 19 18 18 20 20 18 16 13 14 17 17 16 18 19 17 13 21 20 20 21 23 24 24 22 18 17
20 18 14 9 5 3 4 6 10 15 18 18 21 20 21 24 25 24 23 21 23 23 21 17 16 17 19 19 20 22 22 19 17 20 17 18 16 15 19 22 22 23 23
15 13 11 10 7 2 2 2 7 10 14 15 18 20 22 24 24 24 24 24 25 23 22 24 25 26 26 26 26 26 26 26 19 19 16 14 13 12 14 20 25 24 27
5 6 3 7 9 3 5 12 13 15 18 21 20 20 22 22 24 26 25 25 21 23 29 30 33 29 28 29 27 25 23 23 20 18 24 16 20 20 20 22 25 25 33
5 10 14 13 13 15 17 17 19 23 23 24 27 27 27 24 21 21 22 24 28 29 30 28 27 29 30 30 29 27 25 25 26 24 19 24 25 22 22 23 20 21 27
8 10 15 13 17 22 27 27 27 28 28 28 27 29 32 35 35 30 26 26 27 28 30 30 31 34 35 34 33 34 33 33 35 30 27 22 25 25 26 22 19 21 24
11 16 16 19 22 24 29 30 30 32 34 35 35 33 30 29 32 36 40 39 37 38 33 32 32 32 35 37 36 38 39 38 32 30 29 26 25 25 23 28 28 26 23
9 11 13 19 22 22 26 29 25 38 38 38 39 38 38 39 39 39 39 42 44 41 40 38 35 33 33 33 35 38 38 34 31 31 30 30 25 24 25 25 28 24 23
22 21 20 16 14 11 8 19 15 19 27 30 31 32 30 34 39 41 35 35 37 38 40 41 38 35 33 28 28 30 34 35 36 35 33 34 34 33 25 24 23 21 25
23 16 8 9 4 8 10 13 20 20 19 27 34 36 34 34 36 37 35 35 38 39 40 42 42 39 34 30 26 21 22 25 27 31 32 32 30 30 32 32 29 27 28
8 12 7 2 4 9 13 19 21 25 24 25 37 41 34 45 50 43 33 35 38 40 40 37 38 38 39 31 20 12 16 22 26 27 23 22 24 26 27 28 28 28 31
17 16 12 14 14 15 20 23 27 29 35 30 35 42 35 46 48 40 45 37 38 39 39 37 37 27 25 22 17 12 10 14 18 20 16 14 14 17 20 21 23 23 24
26 23 23 21 26 31 31 33 36 38 37 38 35 48 45 46 52 45 45 51 42 38 44 33 39 49 43 35 35 25 10 8 13 13 17 13 9 7 11 14 15 17 19
31 26 24 29 34 40 43 46 46 45 47 49 53 51 57 57 57 53 47 45 49 42 41 40 37 43 48 55 57 43 25 20 15 15 16 14 9 9 12 12 14 17 18
32 30 30 34 42 48 52 53 53 53 57 58 60 63 66 68 68 66 58 56 53 50 47 43 41 43 37 43 48 43 31 34 21 16 9 6 1 2 9 12 14 14 14
35 36 36 41 48 56 59 60 59 59 64 64 67 73 76 76 77 77 74 68 64 61 62 53 43 38 38 31 39 46 62 58 52 40 21 18 19 17 13 6 10 15 13
34 32 40 45 47 48 50 51 53 56 57 60 65 70 72 74 73 73 75 76 73 66 67 67 59 50 41 41 44 42 43 47 48 48 42 27 15 23 21 15 17 18 18
29 35 38 35 32 37 42 46 51 57 67 75 81 86 83 83 86 85 85 82 82 80 70 67 62 56 48 41 39 45 44 41 46 45 30 31 23 22 25 16 16 18 23
Wind_Direction_500mb
156 154 148 141 141 140 135 132 131 124 120 118 116 112 107 103 102 100 97 94 92 93 94 96 96 96 95 91 85 82 80 79 77 75 74 73 73 73 75 77 78 78 75
154 159 159 153 149 147 140 130 127 124 123 120 113 112 112 110 106 102 97 92 88 86 88 89 91 95 98 98 87 79 79 77 78 75 73 72 73 72 71 70 71 75 77
146 161 168 162 158 157 151 144 134 122 116 117 120 122 119 116 113 109 105 101 95 91 90 95 100 103 104 97 83 80 80 77 75 73 74 71 67 73 73 75 70 65 64
137 158 173 171 165 162 162 159 152 144 136 134 133 134 131 122 114 108 104 101 97 93 85 81 90 95 99 104 114 115 105 82 84 82 78 83 78 78 79 75 76 74 71
131 143 163 173 174 172 171 173 170 171 172 164 156 153 143 129 110 95 76 65 51 28 31 13 328 310 300 279 279 273 278 285 294 299 261 222 196 157 103 89 78 78 76
128 123 142 166 175 180 184 186 191 199 206 211 228 275 300 306 311 320 333 341 334 325 341 323 314 314 310 310 310 309 313 314 310 302 287 260 246 233 212 200 125 70 72
104 118 132 151 167 177 188 203 214 240 273 297 311 313 310 306 302 301 300 305 305 312 330 320 312 306 300 298 302 302 300 300 302 289 279 267 264 250 238 230 233 264 315
118 110 118 128 165 180 200 210 212 220 229 242 249 267 284 290 289 285 284 284 283 288 291 284 281 278 280 283 286 291 294 297 301 290 272 265 259 257 248 240 238 249 264
119 111 111 134 158 175 206 262 282 290 280 278 285 288 283 273 269 266 262 265 276 279 272 268 279 290 290 285 284 284 281 284 287 286 274 267 259 246 242 240 238 249 262
118 109 102 94 107 140 200 250 257 249 262 269 269 261 265 275 274 272 269 269 272 279 280 281 280 279 285 281 282 280 272 277 282 295 270 255 264 245 243 241 249 249 256
78 83 87 68 58 3 260 257 282 275 271 271 273 274 272 270 269 266 267 270 273 268 268 276 280 284 281 281 284 282 270 278 274 279 269 259 238 224 220 237 249 252 253
58 57 89 13 9 9 344 353 338 322 317 312 304 299 292 288 284 280 277 273 264 271 280 286 282 280 281 283 283 281 280 270 273 302 244 263 241 245 240 244 247 244 240
73 32 32 28 43 25 5 349 333 336 318 312 307 306 303 297 293 291 289 277 283 281 281 284 284 280 283 277 275 273 283 282 280 279 261 263 253 259 244 239 244 252 236
52 31 31 31 18 6 354 347 341 342 337 334 330 327 320 305 289 279 276 280 280 285 285 284 283 279 281 283 280 274 282 283 284 278 275 265 255 266 264 244 252 248 245
55 35 26 16 6 359 360 1 5 14 15 7 359 354 350 333 326 320 310 298 292 280 285 284 282 281 281 281 279 275 279 281 277 273 266 262 263 269 262 246 251 256 246
77 62 49 43 32 29 44 19 35 29 11 6 360 355 349 345 339 331 323 316 309 301 290 286 283 278 273 273 273 274 274 274 273 271 262 259 259 266 264 247 237 249 243
92 89 80 33 32 29 41 30 4 358 1 352 345 339 336 334 332 327 317 308 302 296 291 284 275 268 265 264 266 268 272 273 273 272 272 266 261 259 257 246 237 237 229
114 115 121 55 36 31 338 334 348 330 334 340 329 322 320 325 327 320 315 306 301 296 286 280 274 266 257 254 258 274 279 273 269 267 266 268 262 253 248 244 244 237 229
158 178 180 235 319 308 325 319 316 313 303 325 326 317 330 335 329 328 328 324 317 301 293 279 269 258 252 251 247 266 304 280 268 264 257 255 253 241 238 239 241 237 233
213 224 244 248 267 295 301 299 295 293 299 296 318 312 324 321 312 318 325 317 318 297 288 290 287 273 256 242 233 255 303 292 257 244 231 216 217 216 216 216 214 218 218
230 242 251 263 265 269 277 286 286 285 283 287 302 300 309 302 304 303 311 313 315 300 284 287 287 272 266 278 294 283 299 170 296 257 211 195 202 208 188 192 194 200 216
243 255 272 277 276 274 276 277 281 282 284 287 289 287 296 291 294 296 293 299 305 295 284 293 298 293 278 270 270 276 272 288 274 247 217 211 208 245 235 228 224 225 223
260 267 281 285 280 278 277 278 278 285 289 289 284 282 281 281 286 291 292 288 287 284 284 286 291 291 278 272 276 248 244 235 275 236 252 228 106 275 233 216 203 201 192
279 279 279 285 283 280 280 282 286 293 293 291 290 287 286 282 282 284 288 287 285 281 281 279 284 281 278 271 280 261 243 245 254 260 254 249 261 299 288 228 191 181 182
277 275 284 286 289 291 290 291 292 294 297 299 298 296 292 288 284 284 284 285 284 280 274 270 272 275 270 269 265 266 257 238 242 251 250 246 265 280 285 251 232 200 185
280 284 289 297 304 302 295 293 294 297 299 299 298 297 297 294 293 288 285 285 282 278 271 267 261 262 263 264 264 259 247 227 220 231 261 268 260 263 258 264 205 190 177
Wind_Speed_850mb
18 21 21 22 24 26 24 22 21 23 23 23 24 23 22 21 21 21 22 23 23 25 27 28 29 29 28 30 33 34 36 36 37 37 37 37 37 36 35 34 35 34 34
22 24 24 22 21 21 22 20 18 19 19 19 18 18 19 18 17 18 18 18 18 18 19 20 21 21 20 19 20 21 23 27 28 29 30 30 30 31 32 31 31 27 31
18 20 24 23 21 20 19 18 15 14 14 15 15 14 13 13 13 14 14 13 12 12 12 13 13 12 11 11 13 14 16 18 17 20 21 22 21 22 23 25 27 28 29
12 15 20 23 22 19 19 19 17 15 13 12 11 10 9 8 8 8 8 8 7 6 6 6 6 5 5 5 4 4 3 4 6 8 9 10 10 13 15 17 20 21 22
12 12 17 22 21 19 18 17 15 13 11 8 6 4 2 1 2 2 3 3 3 2 3 2 3 3 2 2 3 4 5 6 6 4 3 3 3 3 6 9 11 14 15
13 14 14 18 20 17 14 12 10 8 6 5 4 3 5 7 7 7 6 6 6 6 5 7 8 8 9 10 10 11 11 11 12 13 8 7 8 10 6 4 2 3 7
10 14 17 18 17 14 11 9 7 5 5 6 8 9 9 11 12 11 10 10 11 11 9 9 10 10 10 11 13 14 14 14 13 15 15 14 14 14 14 12 8 4 3
13 12 14 11 10 12 12 12 13 12 12 13 11 11 12 13 14 13 14 14 15 14 11 12 11 12 13 13 13 15 18 17 14 14 15 16 20 21 20 21 15 12 11
17 16 11 11 8 7 5 8 14 14 14 15 18 20 19 19 19 19 18 18 20 20 18 16 13 14 17 17 16 18 19 17 13 21 20 20 21 23 24 24 22 18 17
20 18 14 9 5 3 4 6 10 15 18 18 21 20 21 24 25 24 23 21 23 23 21 17 16 17 19 19 20 22 22 19 17 20 17 18 16 15 19 22 22 23 23
15 13 11 10 7 2 2 2 7 10 14 15 18 20 22 24 24 24 24 24 25 23 22 24 25 26 26 26 26 26 26 26 19 19 16 14 13 12 14 20 25 24 27
5 6 3 7 9 3 5 12 13 15 18 21 20 20 22 22 24 26 25 25 21 23 29 30 33 29 28 29 27 25 23 23 20 18 24 16 20 20 20 22 25 25 33
5 10 14 13 13 15 17 17 19 23 23 24 27 27 27 24 21 21 22 24 28 29 30 28 27 29 30 30 29 27 25 25 26 24 19 24 25 22 22 23 20 21 27
8 10 15 13 17 22 27 27 27 28 28 28 27 29 32 35 35 30 26 26 27 28 30 30 31 34 35 34 33 34 33 33 35 30 27 22 25 25 26 22 19 21 24
11 16 16 19 22 24 29 30 30 32 34 35 35 33 30 29 32 36 40 39 37 38 33 32 32 32 35 37 36 38 39 38 32 30 29 26 25 25 23 28 28 26 23
9 11 13 19 22 22 26 29 25 38 38 38 39 38 38 39 39 39 39 42 44 41 40 38 35 33 33 33 35 38 38 34 31 31 30 30 25 24 25 25 28 24 23
22 21 20 16 14 11 8 19 15 19 27 30 31 32 30 34 39 41 35 35 37 38 40 41 38 35 33 28 28 30 34 35 36 35 33 34 34 33 25 24 23 21 25
23 16 8 9 4 8 10 13 20 20 19 27 34 36 34 34 36 37 35 35 38 39 40 42 42 39 34 30 26 21 22 25 27 31 32 32 30 30 32 32 29 27 28
8 12 7 2 4 9 13 19 21 25 24 25 37 41 34 45 50 43 33 35 38 40 40 37 38 38 39 31 20 12 16 22 26 27 23 22 24 26 27 28 28 28 31
17 16 12 14 14 15 20 23 27 29 35 30 35 42 35 46 48 40 45 37 38 39 39 37 37 27 25 22 17 12 10 14 18 20 16 14 14 17 20 21 23 23 24
26 23 23 21 26 31 31 33 36 38 37 38 35 48 45 46 52 45 45 51 42 38 44 33 39 49 43 35 35 25 10 8 13 13 17 13 9 7 11 14 15 17 19
31 26 24 29 34 40 43 46 46 45 47 49 53 51 57 57 57 53 47 45 49 42 41 40 37 43 48 55 57 43 25 20 15 15 16 14 9 9 12 12 14 17 18
32 30 30 34 42 48 52 53 53 53 57 58 60 63 66 68 68 66 58 56 53 50 47 43 41 43 37 43 48 43 31 34 21 16 9 6 1 2 9 12 14 14 14
35 36 36 41 48 56 59 60 59 59 64 64 67 73 76 76 77 77 74 68 64 61 62 53 43 38 38 31 39 46 62 58 52 40 21 18 19 17 13 6 10 15 13
34 32 40 45 47 48 50 51 53 56 57 60 65 70 72 74 73 73 75 76 73 66 67 67 59 50 41 41 44 42 43 47 48 48 42 27 15 23 21 15 17 18 18
29 35 38 35 32 37 42 46 51 57 67 75 81 86 83 83 86 85 85 82 82 80 70 67 62 56 48 41 39 45 44 41 46 45 30 31 23 22 25 16 16 18 23
Wind_Direction_850mb
156 154 148 141 141 140 135 132 131 124 120 118 116 112 107 103 102 100 97 94 92 93 94 96 96 96 95 91 85 82 80 79 77 75 74 73 73 73 75 77 78 78 75
154 159 159 153 149 147 140 130 127 124 123 120 113 112 112 110 106 102 97 92 88 86 88 89 91 95 98 98 87 79 79 77 78 75 73 72 73 72 71 70 71 75 77
146 161 168 162 158 157 151 144 134 122 116 117 120 122 119 116 113 109 105 101 95 91 90 95 100 103 104 97 83 80 80 77 75 73 74 71 67 73 73 75 70 65 64
137 158 173 171 165 162 162 159 152 144 136 134 133 134 131 122 114 108 104 101 97 93 85 81 90 95 99 104 114 115 105 82 84 82 78 83 78 78 79 75 76 74 71
131 143 163 173 174 172 171 173 170 171 172 164 156 153 143 129 110 95 76 65 51 28 31 13 328 310 300 279 279 273 278 285 294 299 261 222 196 157 103 89 78 78 76
128 123 142 166 175 180 184 186 191 199 206 211 228 275 300 306 311 320 333 341 334 325 341 323 314 314 310 310 310 309 313 314 310 302 287 260 246 233 212 200 125 70 72
104 118 132 151 167 177 188 203 214 240 273 297 311 313 310 306 302 301 300 305 305 312 330 320 312 306 300 298 302 302 300 300 302 289 279 267 264 250 238 230 233 264 315
118 110 118 128 165 180 200 210 212 220 229 242 249 267 284 290 289 285 284 284 283 288 291 284 281 278 280 283 286 291 294 297 301 290 272 265 259 257 248 240 238 249 264
119 111 111 134 158 175 206 262 282 290 280 278 285 288 283 273 269 266 262 265 276 279 272 268 279 290 290 285 284 284 281 284 287 286 274 267 259 246 242 240 238 249 262
118 109 102 94 107 140 200 250 257 249 262 269 269 261 265 275 274 272 269 269 272 279 280 281 280 279 285 281 282 280 272 277 282 295 270 255 264 245 243 241 249 249 256
78 83 87 68 58 3 260 257 282 275 271 271 273 274 272 270 269 266 267 270 273 268 268 276 280 284 281 281 284 282 270 278 274 279 269 259 238 224 220 237 249 252 253
58 57 89 13 9 9 344 353 338 322 317 312 304 299 292 288 284 280 277 273 264 271 280 286 282 280 281 283 283 281 280 270 273 302 244 263 241 245 240 244 247 244 240
73 32 32 28 43 25 5 349 333 336 318 312 307 306 303 297 293 291 289 277 283 281 281 284 284 280 283 277 275 273 283 282 280 279 261 263 253 259 244 239 244 252 236
52 31 31 31 18 6 354 347 341 342 337 334 330 327 320 305 289 279 276 280 280 285 285 284 283 279 281 283 280 274 282 283 284 278 275 265 255 266 264 244 252 248 245
55 35 26 16 6 359 360 1 5 14 15 7 359 354 350 333 326 320 310 298 292 280 285 284 282 281 281 281 279 275 279 281 277 273 266 262 263 269 262 246 251 256 246
77 62 49 43 32 29 44 19 35 29 11 6 360 355 349 345 339 331 323 316 309 301 290 286 283 278 273 273 273 274 274 274 273 271 262 259 259 266 264 247 237 249 243
92 89 80 33 32 29 41 30 4 358 1 352 345 339 336 334 332 327 317 308 302 296 291 284 275 268 265 264 266 268 272 273 273 272 272 266 261 259 257 246 237 237 229
114 115 121 55 36 31 338 334 348 330 334 340 329 322 320 325 327 320 315 306 301 296 286 280 274 266 257 254 258 274 279 273 269 267 266 268 262 253 248 244 244 237 229
158 178 180 235 319 308 325 319 316 313 303 325 326 317 330 335 329 328 328 324 317 301 293 279 269 258 252 251 247 266 304 280 268 264 257 255 253 241 238 239 241 237 233
213 224 244 248 267 295 301 299 295 293 299 296 318 312 324 321 312 318 325 317 318 297 288 290 287 273 256 242 233 255 303 292 257 244 231 216 217 216 216 216 214 218 218
230 242 251 263 265 269 277 286 286 285 283 287 302 300 309 302 304 303 311 313 315 300 284 287 287 272 266 278 294 283 299 170 296 257 211 195 202 208 188 192 194 200 216
243 255 272 277 276 274 276 277 281 282 284 287 289 287 296 291 294 296 293 299 305 295 284 293 298 293 278 270 270 276 272 288 274 247 217 211 208 245 235 228 224 225 223
260 267 281 285 280 278 277 278 278 285 289 289 284 282 281 281 286 291 292 288 287 284 284 286 291 291 278 272 276 248 244 235 275 236 252 228 106 275 233 216 203 201 192
279 279 279 285 283 280 280 282 286 293 293 291 290 287 286 282 282 284 288 287 285 281 281 279 284 281 278 271 280 261 243 245 254 260 254 249 261 299 288 228 191 181 182
277 275 284 286 289 291 290 291 292 294 297 299 298 296 292 288 284 284 284 285 284 280 274 270 272 275 270 269 265 266 257 238 242 251 250 246 265 280 285 251 232 200 185
280 284 289 297 304 302 295 293 294 297 299 299 298 297 297 294 293 288 285 285 282 278 271 267 261 262 263 264 264 259 247 227 220 231 261 268 260 263 258 264 205 190 177